Regional Weather Roundup
Issued by NWS

Home | Current Version | Previous Version | Text Only | Print | Product List | Glossary On
Versions: 1 2 3 4 5 6 7 8 9 10 11 12 13 14 15 16 17 18 19 20 21 22 23 24 25 26 27 28 29 30 31 32 33 34 35 36 37 38 39 40 41 42 43 44 45 46 47 48 49 50
000
ASUS43 KDMX 022303
RWRIA

WEATHER ROUNDUP FOR IOWA
NATIONAL WEATHER SERVICE DES MOINES IA
600 PM CDT MON MAY 02 2016

NOTE: "FAIR" INDICATES FEW OR NO CLOUDS BELOW 12,000 FEET WITH NO
SIGNIFICANT WEATHER AND/OR OBSTRUCTIONS TO VISIBILITY.

* - THESE STATIONS ARE NOT NWS STATIONS...THUS NOT UNDER NWS
QUALITY CONTROL.  THEY ALSO DO NOT REPORT WEATHER SUCH
AS PRECIPITATION OR FOG.

IAZ001>003-012>014-020>022-031>034-043>046-030000-
   NORTHWEST IOWA

CITY           SKY/WX    TMP DP  RH WIND       PRES   REMARKS
CARROLL *      CLOUDY    61  43  51 VRB5      30.04S
CHEROKEE *     PTSUNNY   60  39  46 W5        30.04S
DENISON *      PTSUNNY   63  39  42 N7        30.03S
LE MARS *      PTSUNNY   63  37  39 SW3       30.04F
ORANGE CITY *  PTSUNNY   63  37  39 W6        30.04S
SHELDON *      SUNNY     63  36  36 N6        30.02S
SIOUX CITY     SUNNY     64  39  39 CALM      30.04S
SPENCER        MOSUNNY   62  35  36 SW6       30.03F
STORM LAKE *   SUNNY     61  34  36 W7        30.05S
$$

IAZ055>058-069>071-079>083-090>094-030000-
   SOUTHWEST IOWA

CITY           SKY/WX    TMP DP  RH WIND       PRES   REMARKS
ATLANTIC *     PTSUNNY   61  39  44 N3        30.05S
AUDUBON *      PTSUNNY   63  37  39 W5        30.05F
CLARINDA *       N/A    N/A N/A N/A MISG        N/A
COUNCIL BLFS * PTSUNNY   61  41  48 CALM      30.05S
CRESTON *      PTSUNNY   59  37  44 NE7       30.06S
HARLAN  *      PTSUNNY   61  39  44 W5        30.08F
LAMONI         CLOUDY    59  42  53 NE7       30.05S
SHENANDOAH *   PTSUNNY   63  41  45 NW7       30.06S
$$

IAZ047>049-059>061-072>074-084-030000-
   CENTRAL IOWA

CITY           SKY/WX    TMP DP  RH WIND       PRES   REMARKS
AMES           CLOUDY    60  41  49 N5        30.04S
ANKENY *       CLOUDY    61  41  48 NE6       30.04S
BOONE *        CLOUDY    59  39  47 N3        30.04S
CHARITON *     CLOUDY    57  45  62 E5        30.05S
DES MOINES     CLOUDY    61  39  44 NE5       30.04F
GRINNELL*      CLOUDY    59  43  55 E6        30.05S
KNOXVILLE *    CLOUDY    57  43  58 CALM      30.04S
MARSHALLTOWN   CLOUDY    60  40  47 CALM      30.03F
NEWTON *       CLOUDY    59  43  55 E8        30.04F
PELLA *        CLOUDY    59  43  55 CALM      30.06
$$

IAZ004>006-015-016-023>025-035-036-030000-
   NORTH CENTRAL IOWA

CITY           SKY/WX    TMP DP  RH WIND       PRES   REMARKS
ALGONA *       MOSUNNY   63  37  39 W6        30.03F
CLARION *      CLOUDY    61  37  41 CALM      30.04S
ESTHERVILLE    SUNNY     61  39  44 VRB5      30.03S
FORT DODGE *   MOSUNNY   61  39  44 CALM      30.05S
MASON CITY     SUNNY     62  38  40 W5        30.04F
FOREST CITY *  SUNNY     59  34  38 CALM      30.03F
WEBSTER CITY * CLOUDY    61  39  44 CALM      30.03S
IOWA FALLS *     N/A     63  36  36 E3        30.05S
$$

IAZ007>011-017>019-026>030-037>042-050>054-066-030000-
   NORTHEAST IOWA

CITY           SKY/WX    TMP DP  RH WIND       PRES   REMARKS
CEDAR RAPIDS   CLOUDY    57  43  59 E3        30.03S
CHARLES CITY * CLOUDY    61  34  36 S5        30.04S
CLINTON *      CLOUDY    58  40  51 SE5       30.04R
DECORAH *      CLOUDY    61  36  39 CALM      30.02S
DUBUQUE        PTSUNNY   59  37  44 CALM      30.03S
MONTICELLO *   CLOUDY    59  39  47 CALM      30.03S
OELWEIN *      CLOUDY    61  37  41 E6        30.04R
WATERLOO       MOSUNNY   61  36  39 CALM      30.03S
$$

IAZ064-065-067-068-078-030000-
   EAST CENTRAL IOWA

CITY           SKY/WX    TMP DP  RH WIND       PRES   REMARKS
DAVENPORT      CLOUDY    58  40  51 E5        30.03S
IOWA CITY      CLOUDY    57  42  57 N3        30.05F
MT. PLEASANT * CLOUDY    57  46  67 CALM      30.04S
MUSCATINE *    CLOUDY    59  45  58 CALM      30.04S
QUAD CITIES    CLOUDY    60  38  43 NE6       30.02S
$$

IAZ062-063-075>077-085>089-095>099-030000-
   SOUTHEAST IOWA

CITY           SKY/WX    TMP DP  RH WIND       PRES   REMARKS
BURLINGTON     CLOUDY    57  46  66 N5        30.03S
FAIRFIELD *    CLOUDY    55  45  67 E5        30.05R
FORT MADISON * CLOUDY    55  46  71 CALM      30.05S
KEOKUK *       CLOUDY    55  45  67 NE5       30.04S
OSKALOOSA *    PTSUNNY   57  45  62 E3        30.05S
OTTUMWA        CLOUDY    56  45  66 NW3       30.05S
WASHINGTON *   CLOUDY    55  48  76 NW5       30.05F
$$

ABBREVIATIONS USED IN REMARKS
   TC - TEMPERATURES IN CELSIUS
  WCI - WIND CHILL INDEX
   HX - HEAT INDEX
  VSB - VISIBILITY
$$





USA.gov is the U.S. government's official web portal to all federal, state and local government web resources and services.